Miscellaneous Local Product
Issued by NWS North Platte, NE

Home | Current Version | Previous Version | Text Only | Print | Product List | Glossary On
Versions: 1 2 3 4 5 6 7 8 9 10 11 12 13 14 15 16 17 18 19 20 21 22 23 24 25 26 27 28 29 30 31 32 33 34 35 36 37 38 39 40 41 42 43 44 45 46 47 48 49 50
000
AXUS43 KLBF 200910
MISLBF


WESTERN AND NORTH CENTRAL NEBRASKA HOURLY WEATHER ROUNDUP
NATIONAL WEATHER SERVICE NORTH PLATTE NE
400 AM CDT FRI OCT 20 2017

NOTE: "FAIR" INDICATES FEW OR NO CLOUDS BELOW 12,000 FEET WITH NO
SIGNIFICANT WEATHER AND/OR OBSTRUCTIONS TO VISIBILITY.

NOTE: STATIONS NOT REPORTING VARIABLES SUCH AS SKY/WEATHER OR
PRESSURE ARE PROVIDED BY RAWS AND APRS NETWORKS AND ARE NOT UNDER
NATIONAL WEATHER SERVICE QUALITY CONTROL.

...OBSERVATIONS IN AND NEAR THE EASTERN PANHANDLE OF NEBRASKA...

CITY           SKY/WX    TMP DP  RH WIND       PRES   REMARKS
PINE RIDGE     CLEAR     59  42  53 SW15G21   29.70F
GORDON         FAIR      53  44  72 W6        29.73F
CHADRON        CLEAR     54  34  46 S5        29.69F
ALLIANCE       CLEAR     40  37  89 S8        29.75F WCI  34
SIDNEY         MOCLDY    45  41  86 S10       29.77F
CRESCENT LAKE    N/A     49  44  84 SE6G13      N/A
$$

...OBSERVATIONS IN NORTHERN NEBRASKA AND FAR SOUTHERN SOUTH DAKOTA...

CITY           SKY/WX    TMP DP  RH WIND       PRES   REMARKS
WINNER         FAIR      65  44  46 S25G35    29.69F
VALENTINE      PTCLDY    59  43  55 SW14      29.74F
THEDFORD       CLEAR     58  45  60 S14       29.79F
AINSWORTH      PTCLDY    57  45  62 S13       29.77F
O`NEILL        CLEAR     57  47  68 S13G18    29.81F
ORD            CLEAR     55  46  71 S9        29.84F
BROKEN BOW     PTCLDY    56  45  66 S9        29.84F
VALENTINE NWR    N/A     51  42  72 S7          N/A
HALSEY           N/A     59  42  52 S9G16       N/A
BUTTE            N/A     59  46  61 S12G20      N/A
CHAMBERS         N/A     56  46  68 S3          N/A
EWING            N/A     59  47  65 S9G16       N/A
$$

...OBSERVATIONS IN SOUTHWEST NEBRASKA AND FAR NORTHEAST COLORADO...

CITY           SKY/WX    TMP DP  RH WIND       PRES   REMARKS
HOLYOKE        FAIR      43  39  87 S6        29.80F
IMPERIAL       PTCLDY    57  45  64 S17       29.79F
OGALLALA       CLEAR     54  45  71 CALM      29.79F
NORTH PLATTE   PTCLDY    59  46  62 S14       29.80F
MCCOOK         MOCLDY    57  46  66 S9        29.83F
LEXINGTON      PTCLDY    55  46  72 S9        29.85F
STAPLETON        N/A     55  45  70 CALM        N/A
GOTHENBURG       N/A     59  43  55 CALM        N/A
CALLAWAY         N/A     54  46  74 S9          N/A
$$

...OBSERVATIONS IN CENTRAL LINCOLN COUNTY AREA...

CITY           SKY/WX    TMP DP  RH WIND       PRES   REMARKS
N.P. AIRPORT   PTCLDY    59  46  62 S14       29.80F
N.P. DOWNTOWN    N/A     57  46  67 S3          N/A
N.P. HILLCREST   N/A     57  47  69 E5          N/A
$$

...SOME OBSERVATIONS FROM AROUND THE REGION...

CITY           SKY/WX    TMP DP  RH WIND       PRES   REMARKS
DENVER         PTCLDY    50  30  46 W9        29.82F
LIMON          PTCLDY    33  32  96 W6        29.86F WCI  28
ASPEN          PTCLDY    36  27  69 S7        30.03F WCI  30
LARAMIE        PTCLDY    39  27  62 CALM      29.92F
CASPER         PTCLDY    51  28  41 SW8       29.75F
CHEYENNE       PTCLDY    46  30  53 W6        29.84F
SCOTTSBLUFF    CLEAR     45  32  60 E6        29.75F
GRAND ISLAND   FAIR      57  49  74 S12       29.90F
OMAHA          MOCLDY    56  49  77 S12       29.98S
SIOUX FALLS    FAIR      58  50  75 S13       29.84F
PIERRE         CLEAR     60  47  61 SE6       29.63F
RAPID CITY     PTCLDY    52  26  36 CALM      29.63F
BISMARCK       CLEAR     44  39  82 E10       29.55F
KANSAS CITY    FAIR      59  52  77 S15       30.07F
HILL CITY      FAIR      60  47  61 S15G24    29.88F
WICHITA        FAIR      57  54  89 S12       30.03F
DODGE CITY     FAIR      56  47  71 S14       29.95F
OKLAHOMA CITY  MOCLDY    58  52  80 SE12      30.06F
DALLAS         MOCLDY    65  57  75 SE6       30.07F
AMARILLO       FAIR      58  52  80 S18       29.99F
$$




USA.gov is the U.S. government's official web portal to all federal, state and local government web resources and services.